Wind_Speed
2 3 4 5 6 9 13 14 15 18 19 17 17 16 16 17 15 14 14 13 13 12 13 13 13 14 13 13 13 13 14 14 15 17 18 19 19 19 19 19 19 20 21 21 21 21 21 20 20 20 19 20 19 18 18 16 16 16 13 13 13 12 11 10 10 11 11 11 12 12 12 11 11 11 11 11 11 12 12 12 12 12 14 14 14
3 3 3 4 5 7 10 12 13 16 17 16 16 16 16 17 16 15 15 15 14 14 14 14 14 14 13 13 14 14 15 16 16 17 17 17 17 18 19 19 19 19 19 18 18 17 16 16 16 16 16 17 17 17 17 16 16 15 13 12 11 11 11 10 11 12 11 10 9 9 10 11 11 11 12 12 12 13 14 14 13 13 14 14 14
4 4 3 4 5 6 9 11 12 13 13 14 15 15 15 16 15 15 14 14 14 13 13 13 12 12 12 11 12 13 14 16 16 16 17 17 18 18 17 16 16 15 15 14 14 13 12 13 13 14 14 15 16 15 15 15 14 14 13 12 10 9 10 10 12 13 11 9 9 9 8 9 10 10 11 12 11 11 13 14 15 15 14 14 14
5 5 5 5 6 6 8 10 11 12 11 11 13 14 15 14 13 14 13 13 12 11 11 10 10 10 10 11 12 13 13 14 16 16 16 15 15 14 12 12 11 11 11 11 11 11 11 11 12 12 12 13 14 14 13 12 12 12 12 11 9 9 10 10 11 13 12 10 9 9 7 8 9 9 9 10 9 10 11 13 15 16 16 15 15
6 6 6 6 7 7 7 8 10 10 10 10 11 13 14 13 13 14 12 12 11 11 10 10 9 9 10 11 11 11 11 12 12 12 11 9 9 8 8 9 9 9 9 10 10 11 10 10 10 11 11 11 12 12 11 10 10 10 11 11 10 10 11 10 11 12 12 12 11 10 9 8 8 7 6 8 9 9 10 11 12 15 16 16 16
6 7 7 7 8 8 7 8 8 8 9 9 10 11 12 12 12 12 11 11 10 10 9 9 8 7 7 7 6 7 7 7 7 6 6 6 6 6 6 8 8 8 8 9 9 10 10 10 10 11 11 11 11 10 9 8 8 9 11 11 11 11 12 11 11 12 12 13 14 14 12 11 9 7 8 9 9 9 10 11 12 13 14 16 16
7 7 7 7 8 8 7 8 8 7 8 8 9 9 9 8 8 9 9 9 9 8 8 7 7 6 5 4 3 3 3 3 4 4 4 5 5 5 5 6 7 7 7 8 8 7 8 9 9 10 10 10 10 9 8 8 8 9 11 12 12 12 13 12 12 13 12 12 13 14 14 14 13 12 12 12 10 10 11 12 12 13 13 14 14
10 9 8 8 8 8 7 7 8 8 8 7 8 8 8 8 7 7 8 8 7 7 6 5 5 4 3 2 1 1 1 2 2 2 2 3 3 3 3 5 5 6 7 7 7 7 7 7 7 7 8 8 9 9 8 7 8 10 13 13 13 14 14 13 13 13 12 12 12 12 13 13 14 15 15 15 13 11 11 11 13 14 14 13 12
11 11 10 9 8 8 8 7 7 8 7 6 7 7 8 7 7 7 7 7 6 4 4 4 3 2 1 1 2 2 2 2 1 1 2 3 3 4 5 5 5 6 7 8 7 7 7 7 7 7 7 7 7 8 7 8 9 10 13 13 12 13 13 13 13 12 12 13 13 12 12 13 13 14 15 16 16 15 14 13 14 14 13 14 13
12 11 11 10 9 8 8 8 7 7 7 6 6 7 7 7 7 7 7 6 5 4 4 4 4 4 3 3 2 2 2 2 3 3 4 4 4 5 7 7 6 6 7 9 8 8 8 7 8 8 8 8 8 8 8 8 9 10 11 11 12 12 12 12 13 13 13 13 13 13 14 14 14 15 16 16 16 16 15 16 15 12 12 13 13
12 11 10 10 9 9 9 9 7 7 7 6 6 6 6 7 7 7 7 6 6 5 5 5 4 4 3 3 2 2 3 3 3 4 4 4 3 4 5 6 6 5 6 9 8 7 8 8 8 8 8 9 9 9 8 8 9 9 9 10 11 12 12 12 13 14 14 14 14 14 15 15 15 16 16 15 16 16 14 16 16 12 12 12 11
14 13 11 10 10 9 9 9 8 7 7 7 7 7 6 7 7 7 6 6 6 5 4 4 3 3 3 3 3 4 4 3 3 3 3 3 3 4 5 5 5 5 5 7 6 7 8 8 7 8 8 9 9 9 9 10 10 10 9 10 11 11 11 12 13 14 14 15 15 15 16 17 15 15 16 16 18 18 17 18 17 14 15 14 11
15 14 13 12 11 10 9 9 8 7 7 7 7 7 7 7 6 6 6 6 5 5 5 5 4 4 5 4 5 5 4 3 3 3 3 3 4 4 5 5 6 5 4 6 7 8 8 8 9 9 9 10 10 10 11 11 12 11 11 11 11 11 12 11 12 13 14 15 16 16 18 19 17 17 17 17 18 19 20 21 19 17 19 19 16
16 15 15 14 13 11 10 10 9 8 8 7 7 7 7 7 7 6 6 6 7 7 7 7 6 6 5 5 4 4 3 2 1 2 3 4 4 4 5 5 6 6 5 7 8 8 7 8 10 9 10 12 11 11 12 12 12 12 12 12 12 12 13 12 12 12 13 14 15 16 17 17 18 18 18 17 17 19 21 21 19 18 17 18 18
17 16 15 14 13 12 11 10 9 9 9 9 9 9 8 8 8 8 7 8 8 8 8 8 7 6 5 4 3 2 1 1 1 2 4 4 4 5 7 5 5 6 7 8 9 8 7 8 10 9 10 12 12 11 12 12 13 13 13 13 13 13 14 14 13 13 14 14 14 15 14 15 17 17 16 17 17 19 21 20 20 19 18 17 17
18 17 16 15 14 13 12 11 10 10 10 10 10 10 10 10 10 9 9 9 8 8 8 8 7 6 4 3 2 1 1 1 2 3 4 5 5 5 6 6 6 7 8 8 9 8 9 10 10 9 11 13 12 12 13 13 14 15 14 14 14 14 14 14 14 14 14 14 14 14 14 14 14 13 14 16 16 18 20 20 20 21 21 19 17
19 18 17 16 15 14 13 12 11 11 11 12 12 12 11 11 11 10 10 9 8 8 8 7 7 5 3 1 0 1 1 2 3 3 4 5 6 5 5 6 7 8 7 8 8 9 11 12 11 11 12 13 13 13 13 13 15 15 14 15 15 15 15 15 15 14 14 13 14 14 14 14 13 13 13 13 14 16 18 19 20 22 22 21 20
19 19 18 17 16 15 13 13 12 12 12 13 13 12 11 11 10 10 9 9 8 8 7 6 6 4 3 1 1 1 2 2 2 3 4 4 5 5 6 7 7 7 8 9 9 9 10 12 12 12 12 13 13 12 12 13 14 14 14 15 15 16 16 16 16 16 15 15 14 15 15 14 14 14 14 14 14 15 16 18 19 19 21 22 22
20 20 19 18 17 15 14 13 13 12 13 13 13 12 11 11 10 9 9 8 7 8 7 6 5 4 3 2 3 2 2 2 3 4 3 3 5 5 6 7 6 6 8 9 8 8 9 10 11 11 11 12 11 11 12 12 13 13 13 14 14 15 15 15 16 17 16 16 16 15 15 15 16 16 16 16 16 15 15 16 17 19 20 21 22
22 21 19 18 17 16 15 14 14 14 14 14 13 12 12 11 11 9 8 7 6 6 6 6 5 5 4 3 3 3 2 3 3 3 3 5 6 5 5 6 6 5 7 8 8 8 9 9 10 10 10 11 11 11 12 12 12 11 12 12 13 14 15 15 16 17 16 17 17 16 17 17 17 17 17 16 16 16 15 15 16 18 20 20 22
22 21 20 19 18 16 16 15 14 15 15 15 14 13 13 12 11 10 9 7 6 6 6 6 6 6 5 4 4 4 3 3 3 4 4 5 6 5 5 6 6 6 7 8 8 9 10 11 11 11 11 12 12 12 11 11 11 11 12 12 12 13 14 15 15 16 17 17 17 18 18 17 17 18 17 16 16 16 16 16 16 17 18 19 21
23 21 20 19 18 17 17 16 16 16 16 15 14 14 13 12 11 10 9 8 6 6 6 6 6 5 5 4 4 4 4 4 4 4 5 6 6 6 6 6 6 6 7 8 9 9 10 11 12 11 11 12 12 11 10 11 11 12 12 13 13 13 13 13 15 16 16 16 17 18 19 18 18 18 18 17 17 17 17 17 17 17 17 17 20
23 21 20 19 19 18 17 17 17 17 17 17 15 14 13 13 12 11 10 8 7 5 5 5 6 5 4 4 4 4 4 4 4 5 6 6 6 7 7 6 6 7 8 9 10 10 10 11 11 12 11 11 11 11 11 11 11 12 13 13 13 14 14 14 15 16 16 16 16 17 18 18 17 18 19 18 18 18 17 18 19 18 18 18 20
23 21 19 19 19 18 18 18 18 19 19 18 16 15 14 14 13 12 10 9 7 5 3 3 4 4 3 3 3 4 5 6 5 5 7 7 7 7 8 8 7 7 8 9 10 11 11 11 12 12 12 12 12 11 11 11 12 12 12 13 13 14 14 15 16 16 17 17 17 17 18 17 18 19 19 19 18 18 18 19 19 19 20 21 20
23 21 20 20 20 20 20 20 20 20 20 19 18 17 16 14 14 12 11 10 8 6 3 2 3 3 3 3 4 5 6 7 6 6 7 8 8 9 9 9 8 8 9 9 10 11 11 12 12 12 13 13 12 12 12 12 13 12 13 13 14 14 14 15 16 17 17 18 18 18 18 18 19 20 20 19 19 19 19 20 20 19 20 20 20
23 23 21 21 22 22 22 22 22 21 20 20 19 18 16 15 14 13 12 10 8 6 4 3 3 3 3 3 4 6 6 7 6 7 8 9 9 10 10 10 10 9 10 10 10 11 11 12 13 13 13 13 12 12 12 13 13 13 13 14 15 15 15 15 16 16 17 18 18 19 19 19 20 20 21 20 20 20 20 20 20 20 20 20 21
23 22 21 22 24 24 23 23 22 20 20 20 19 18 17 16 15 14 12 10 8 6 4 3 3 4 5 4 5 6 6 6 6 7 8 9 10 11 11 11 10 10 11 10 10 11 12 13 13 13 13 14 13 12 12 12 13 13 14 15 16 16 16 16 16 16 17 17 18 19 19 19 20 20 21 21 21 21 21 21 21 21 21 21 22
21 22 22 23 25 24 23 24 23 21 21 21 20 18 17 16 15 14 13 11 9 7 5 3 3 5 5 5 5 6 7 6 7 8 9 10 11 11 11 11 10 11 12 11 11 12 12 12 13 13 14 14 13 13 12 12 12 13 14 15 16 16 17 17 17 18 18 18 19 19 19 20 21 21 21 22 22 22 22 22 22 21 21 22 23
21 22 23 24 26 26 25 25 25 24 23 22 20 19 18 17 16 15 13 11 9 7 5 4 4 4 5 5 6 7 7 8 8 9 10 11 12 12 11 10 11 11 12 13 13 13 13 13 13 13 14 14 13 13 13 13 14 14 15 16 17 18 18 18 19 19 18 19 20 20 20 21 21 21 22 23 24 24 24 24 23 23 23 23 25
21 22 24 25 27 28 28 27 27 26 25 23 22 21 19 17 16 15 14 12 10 8 6 5 5 5 5 5 6 8 8 9 9 10 11 11 12 11 11 11 12 12 12 13 13 13 15 17 16 14 13 14 14 13 13 14 15 15 16 17 18 19 19 20 20 21 20 20 20 21 21 21 21 22 23 24 24 24 25 26 26 26 25 26 26
21 21 23 25 26 28 29 28 28 27 26 25 23 22 20 18 16 15 13 12 11 8 7 6 6 6 6 6 8 9 10 10 10 11 11 11 11 12 12 12 12 13 13 13 14 16 19 21 18 14 13 15 15 15 16 16 16 16 16 17 17 18 18 20 20 21 22 22 21 21 21 21 21 22 23 23 24 24 26 27 28 28 28 28 28
22 21 23 25 26 27 29 29 28 28 27 26 25 23 21 18 17 15 13 11 10 9 8 8 8 8 7 8 9 11 11 11 11 11 12 12 12 13 12 13 13 14 14 16 18 20 22 20 16 15 15 16 16 17 20 20 17 16 17 18 19 18 18 19 20 20 21 22 22 23 23 22 22 22 23 23 23 23 24 25 27 29 29 30 30
22 23 24 25 26 26 27 27 27 28 27 27 26 24 21 18 16 14 13 11 10 9 9 9 10 10 9 9 11 11 11 12 12 12 13 13 13 13 13 14 15 16 18 20 21 21 21 18 15 16 17 17 17 18 21 21 18 17 17 18 20 21 20 20 20 21 22 22 23 24 25 25 23 22 23 23 23 23 24 25 26 27 28 29 30
20 22 23 23 23 23 24 23 25 27 27 25 25 23 20 18 15 13 12 11 10 10 9 11 11 10 10 10 11 12 13 13 14 14 14 15 14 15 15 15 16 18 20 21 21 20 19 17 16 17 17 17 17 18 20 21 19 18 18 18 20 22 22 22 22 22 23 23 23 23 25 27 26 24 23 24 25 25 24 25 26 26 27 27 28
17 20 21 20 21 21 21 21 22 24 25 25 24 22 20 18 15 13 12 10 10 10 10 11 12 11 11 11 12 13 14 15 15 16 16 16 16 15 16 17 19 21 23 22 21 19 18 17 17 17 18 18 18 18 20 22 21 20 20 20 21 22 22 22 22 22 22 22 23 24 25 26 28 27 25 24 25 25 25 26 26 26 27 27 27
13 15 17 17 18 18 18 19 19 20 23 24 23 21 19 17 15 14 11 9 9 10 11 12 12 11 12 13 14 15 16 16 17 17 17 17 16 17 18 20 22 24 23 22 21 19 18 18 18 18 18 18 19 19 21 24 25 24 23 22 22 21 21 21 21 21 21 21 22 23 24 25 26 27 27 27 26 26 26 28 28 27 27 27 28
9 11 12 12 13 13 14 15 16 17 19 22 22 20 18 16 15 13 10 9 10 10 11 12 12 12 13 15 16 17 17 18 18 17 17 17 18 20 21 22 22 21 21 21 21 19 18 18 18 18 18 19 20 22 24 26 27 25 22 21 19 19 19 20 21 21 21 21 21 21 22 24 24 25 27 28 29 28 28 28 28 27 27 27 27
7 7 7 7 8 10 10 10 11 12 15 19 21 20 17 14 13 11 10 10 10 11 12 12 12 12 15 17 17 17 17 17 17 17 18 19 21 22 22 22 20 19 20 22 21 20 19 20 20 21 21 22 23 24 24 25 24 21 19 18 17 17 18 18 19 20 20 20 21 21 22 24 24 25 26 28 30 30 30 29 29 28 29 29 27
7 7 6 7 7 8 8 7 8 10 13 16 18 17 14 13 12 11 10 10 10 11 12 12 12 15 17 18 17 17 17 16 16 18 20 21 22 22 23 23 21 20 21 21 19 20 21 22 22 23 22 22 22 21 19 20 21 19 17 16 16 16 17 18 19 20 20 20 20 21 22 23 24 25 25 25 26 28 29 29 29 29 31 30 27
9 9 9 9 9 9 9 9 10 10 12 14 14 12 11 11 11 11 10 10 11 11 12 12 14 17 17 16 15 15 15 15 17 19 21 22 22 23 23 22 20 20 20 20 20 20 21 21 21 20 19 18 18 17 16 18 21 19 16 15 16 16 17 18 19 20 21 20 20 19 20 21 22 23 23 23 23 24 27 29 29 30 31 30 28
12 12 12 12 12 12 11 11 12 13 14 13 11 9 8 9 10 9 9 10 11 11 12 14 16 16 15 14 14 14 15 17 19 20 22 23 23 23 21 19 18 18 19 19 19 19 18 18 17 17 17 17 16 16 17 17 19 19 16 16 17 18 18 18 19 21 21 21 21 20 20 20 21 23 23 24 24 24 25 27 29 32 32 31 29
14 14 14 14 15 14 14 14 14 14 13 11 9 9 8 8 8 6 6 8 10 12 13 15 15 13 12 13 14 16 17 19 20 21 23 23 20 18 17 17 17 17 17 18 18 17 17 16 15 16 16 16 15 16 18 18 18 19 18 18 18 19 20 20 21 22 22 22 22 22 22 23 24 25 25 25 26 26 27 28 29 31 34 34 34
15 15 15 15 16 16 15 15 13 12 11 10 9 9 8 7 6 5 5 8 11 13 13 12 11 11 12 13 16 18 19 19 20 21 21 18 16 15 15 16 16 16 16 17 18 18 18 17 16 16 15 15 15 16 17 18 19 19 20 20 20 20 21 21 21 22 22 22 22 23 24 26 27 27 27 27 27 27 28 29 29 30 32 34 35
16 16 16 16 16 16 14 13 11 10 10 10 8 7 6 5 5 7 8 9 10 10 10 9 9 11 13 15 17 19 19 19 19 18 16 15 15 16 16 17 17 17 16 17 17 18 18 18 18 17 15 16 17 17 18 19 19 20 21 21 21 20 20 20 22 23 24 24 24 24 27 29 31 30 30 29 29 28 27 27 27 28 30 32 34
17 16 15 14 14 13 12 11 10 8 7 7 5 4 4 5 7 8 8 8 7 7 8 8 9 11 13 14 17 18 17 16 16 15 14 15 16 17 18 18 19 18 18 17 18 19 18 17 18 18 17 18 19 20 20 19 19 20 21 21 21 21 22 24 26 28 28 29 30 31 32 34 35 34 33 32 31 29 26 25 25 25 27 30 33
16 15 14 13 11 10 8 8 7 6 4 4 4 3 4 5 6 6 6 6 6 7 8 8 8 9 10 12 14 15 15 14 13 14 15 16 17 17 18 19 18 19 19 18 18 19 18 18 19 20 20 20 20 20 20 19 19 20 21 20 20 21 25 29 31 30 30 30 31 31 32 34 35 33 32 32 31 29 27 26 26 26 26 28 31
14 13 12 11 10 9 7 6 5 4 3 2 3 3 3 4 4 2 3 6 7 6 7 7 8 9 10 12 14 15 14 13 13 14 15 16 16 16 17 18 17 18 18 16 16 17 18 19 20 20 20 19 18 18 18 19 21 22 22 21 21 22 27 31 30 29 29 30 31 31 32 34 35 34 32 31 31 30 28 26 25 25 25 26 27
13 12 11 10 9 9 7 6 5 4 4 3 1 2 2 3 3 3 4 5 6 6 7 7 8 9 10 12 14 14 13 13 14 16 16 16 16 16 16 17 16 16 17 16 15 16 17 18 19 19 19 18 17 17 18 21 24 25 27 28 29 28 30 29 28 27 29 32 34 33 32 31 32 32 31 29 28 28 27 25 23 23 23 24 24
12 11 9 8 8 8 7 6 4 4 3 2 1 1 2 3 4 4 5 5 5 7 8 8 8 9 11 13 14 13 13 14 15 16 16 17 17 16 16 16 15 14 17 17 16 16 16 17 18 19 19 18 17 17 20 24 27 29 30 32 33 32 31 30 30 30 31 33 35 34 31 29 28 27 27 26 24 25 25 24 23 22 23 23 23
10 8 7 7 7 7 7 5 4 4 3 2 1 2 2 3 4 5 5 6 8 8 7 8 9 10 12 15 14 12 13 15 16 16 17 18 18 17 18 19 19 19 20 19 17 16 17 17 18 18 18 19 20 21 24 27 28 29 30 31 32 32 33 32 32 32 32 33 34 32 28 27 26 24 23 24 24 23 24 23 22 21 22 23 23
8 7 7 7 7 7 6 5 4 4 2 1 1 2 3 3 4 5 7 9 10 9 7 8 10 11 14 15 13 12 14 16 16 17 18 18 17 17 18 20 22 23 23 20 17 18 19 18 18 19 19 19 21 22 23 25 26 28 29 29 30 30 31 30 30 31 32 32 32 30 27 25 24 23 23 23 22 22 23 24 23 22 22 22 23
Wind_Direction
148 164 169 179 200 199 198 198 195 202 207 209 212 212 215 217 219 227 227 225 230 236 237 232 235 243 246 248 251 255 258 262 266 265 265 268 270 272 273 274 274 274 274 277 278 279 280 283 283 283 282 284 284 284 279 266 253 249 248 249 248 247 251 250 248 247 248 254 261 267 263 258 257 257 259 263 264 257 247 239 233 230 230 231 233
143 147 159 165 187 185 185 192 190 197 207 208 209 213 217 221 224 227 225 224 225 228 236 239 241 245 247 248 253 260 264 266 269 271 271 273 274 275 275 277 277 276 275 277 278 279 281 284 286 287 287 286 284 282 279 272 261 252 247 247 245 240 241 241 241 242 243 245 250 259 262 258 254 255 257 259 261 252 241 235 232 231 232 231 233
147 146 151 148 160 166 171 184 185 191 203 204 205 211 216 220 221 218 219 222 222 224 231 238 241 243 246 249 253 258 263 267 272 276 277 279 279 276 275 276 276 277 278 279 281 283 286 287 286 288 292 289 285 280 274 269 264 260 251 242 234 235 239 236 237 241 242 239 242 250 252 252 248 240 242 251 256 251 239 230 226 229 232 230 232
162 153 151 145 147 155 166 178 182 184 194 199 202 208 210 214 215 212 214 217 219 224 229 236 240 244 252 259 262 264 270 275 279 279 278 278 277 275 275 275 275 281 285 286 289 288 285 284 285 289 292 292 286 280 273 265 261 260 257 249 236 236 243 241 239 243 243 234 237 246 243 250 250 234 231 237 239 243 243 234 226 227 231 231 231
172 161 155 149 147 154 161 168 176 181 189 197 201 206 208 212 216 216 220 223 225 229 232 237 243 249 261 269 273 276 278 281 282 280 276 275 276 277 276 273 275 283 286 285 284 280 278 281 286 290 292 292 289 285 281 272 260 256 258 254 244 242 247 249 244 245 247 242 240 241 239 250 253 240 236 231 229 238 243 240 234 229 229 231 231
180 169 159 155 153 157 157 157 164 171 180 186 189 198 204 209 217 219 223 227 229 231 233 239 243 251 263 269 269 270 277 281 277 275 272 274 280 281 273 270 278 287 285 283 281 278 282 287 287 289 290 289 287 285 284 275 263 256 256 255 250 247 247 250 251 249 251 251 249 245 243 249 254 256 256 248 238 229 228 235 242 240 233 233 234
185 176 166 162 159 159 160 160 161 163 171 174 175 182 186 192 205 210 212 216 221 223 223 227 233 242 249 248 245 248 268 271 260 259 262 275 292 291 281 282 292 300 295 296 302 298 294 293 291 292 290 287 286 284 277 267 259 254 251 248 248 246 244 246 251 248 246 252 256 254 250 250 253 255 257 261 251 225 222 229 236 245 242 234 234
184 180 177 171 164 165 166 166 167 167 172 172 169 173 177 181 188 194 203 206 210 214 210 214 227 234 237 235 219 181 167 238 261 264 262 287 314 309 301 307 311 314 310 312 318 316 307 304 303 301 294 290 292 294 284 262 254 252 250 249 249 249 251 250 249 248 251 258 260 258 257 254 253 251 251 258 259 252 249 238 228 236 243 238 233
184 182 183 180 174 171 167 171 176 170 171 174 173 177 182 184 183 187 199 199 194 189 182 186 186 168 158 156 150 148 164 202 248 263 266 280 285 284 289 295 299 304 306 306 308 310 308 309 310 309 304 297 297 297 285 261 253 252 254 257 258 257 258 255 249 247 253 259 260 260 259 256 253 251 250 251 255 260 263 254 234 223 233 242 237
186 183 182 184 182 179 173 175 178 168 166 174 177 181 183 185 185 184 183 172 154 146 147 142 134 129 131 137 134 140 186 227 250 261 271 276 275 283 287 283 283 290 292 289 290 294 295 295 298 301 299 298 299 296 284 270 267 267 263 263 264 261 258 254 251 248 248 251 258 261 259 258 255 251 249 248 251 255 258 264 257 237 243 252 239
185 182 180 183 182 179 176 174 173 170 170 173 175 177 176 174 172 165 156 146 140 137 138 134 130 135 143 152 168 206 238 255 263 270 278 282 272 268 274 276 272 268 272 279 282 281 279 280 283 284 283 286 290 290 287 283 285 287 279 272 272 268 257 251 252 251 249 249 252 256 259 260 262 262 260 257 256 257 258 263 264 261 265 261 247
183 181 179 180 177 174 174 173 173 175 173 169 168 167 166 164 160 153 147 145 145 143 143 144 150 168 188 206 218 233 247 247 242 254 264 264 254 254 266 276 277 273 275 283 283 272 269 267 268 273 274 274 277 278 278 280 285 287 283 281 282 277 265 254 251 251 251 252 252 253 255 253 253 261 264 261 259 258 259 261 262 266 267 258 251
181 181 181 178 173 170 170 171 172 172 169 165 163 162 163 165 164 162 159 160 162 166 173 178 188 203 210 211 212 222 230 216 216 242 254 256 261 269 279 287 291 292 281 277 274 267 268 267 262 262 264 266 268 271 272 274 276 278 278 280 280 280 278 271 264 261 255 253 254 254 253 250 247 249 254 261 266 262 259 264 269 271 269 264 258
179 179 179 174 171 168 167 168 168 168 167 166 166 167 167 167 172 178 178 177 176 176 178 177 182 188 185 182 190 204 212 214 231 244 263 281 285 281 281 283 290 295 282 271 272 269 268 269 265 263 263 262 261 263 267 269 271 272 273 275 274 275 278 279 279 276 266 260 260 258 258 258 255 251 250 257 264 263 260 264 268 266 261 263 262
176 174 172 170 168 167 168 168 168 168 167 168 171 171 169 167 171 174 172 169 165 161 159 157 161 165 162 164 174 195 222 279 289 266 274 290 291 279 286 294 287 283 280 279 285 283 269 266 269 271 271 268 263 260 261 264 266 265 267 269 269 270 272 274 276 275 273 270 266 260 256 258 259 256 256 256 255 259 261 259 259 260 258 259 262
172 168 166 167 168 168 170 170 170 169 166 167 167 164 161 157 156 154 153 154 153 150 149 150 154 157 155 156 177 224 254 279 291 297 297 297 295 285 294 304 286 279 286 290 293 290 277 273 275 276 275 274 273 269 265 266 264 261 262 265 266 268 269 269 269 268 270 270 269 266 262 261 261 257 257 258 255 257 260 257 254 256 260 263 263
168 165 165 168 169 171 173 172 171 170 167 166 163 158 154 150 147 145 147 151 154 153 154 156 158 161 162 166 234 258 271 273 278 292 298 299 303 297 286 282 277 282 288 284 280 282 283 283 281 276 274 273 275 276 275 273 269 264 263 263 262 262 262 263 264 264 265 266 266 267 268 268 268 264 258 254 252 253 255 256 255 255 256 256 259
166 164 167 170 171 173 174 173 172 170 168 166 163 159 156 153 149 146 149 154 157 161 167 168 166 172 184 226 284 274 271 274 272 283 291 292 294 292 280 273 276 279 277 277 280 285 288 289 288 285 281 280 282 284 281 276 272 269 266 264 263 262 258 257 259 260 261 263 263 263 265 266 267 269 269 265 260 255 252 253 253 253 253 251 253
167 165 169 171 173 176 174 173 172 171 171 167 165 163 161 160 156 152 154 158 162 166 177 182 178 187 204 235 264 266 264 272 276 276 278 273 264 264 269 272 275 273 275 283 287 285 284 286 289 290 289 289 289 287 283 277 274 274 271 270 270 269 264 258 257 258 258 258 259 260 262 264 265 267 269 272 271 266 261 257 251 249 252 253 253
169 167 171 173 174 176 175 174 173 174 173 169 169 168 165 165 161 159 162 165 169 174 183 190 192 206 222 238 258 264 266 267 273 267 254 253 258 258 263 269 269 266 272 283 291 297 303 304 300 296 291 288 283 278 275 274 275 276 274 272 268 264 262 259 258 259 259 258 259 260 261 261 264 265 266 267 268 267 265 261 255 251 251 253 252
170 170 173 173 173 176 176 175 175 176 175 173 173 172 169 170 167 167 171 173 181 188 195 200 202 215 228 233 244 259 272 264 261 263 253 256 266 266 258 260 268 275 279 289 301 309 312 312 309 302 291 285 282 280 278 277 278 276 274 274 271 266 264 265 264 262 260 260 261 261 261 260 260 261 262 262 261 260 259 258 257 254 251 251 250
171 172 173 173 175 177 176 176 177 178 179 177 177 175 174 178 175 175 181 182 190 199 202 204 207 219 228 222 227 246 268 268 259 265 269 268 270 267 262 268 279 285 292 300 306 306 302 302 304 304 298 292 288 286 285 282 280 275 272 273 273 272 270 269 270 268 264 263 261 260 261 261 260 259 258 258 257 256 255 255 255 255 255 253 252
172 173 174 175 178 178 177 179 180 182 184 182 181 181 180 183 182 183 187 186 190 197 195 197 203 217 228 225 235 258 279 281 266 265 272 270 266 267 269 275 278 284 297 304 302 299 297 303 312 316 311 301 291 285 283 281 280 278 277 275 272 269 269 269 270 271 270 267 264 261 260 260 259 258 255 254 255 255 254 254 254 254 255 256 257
173 174 175 178 180 179 180 182 184 186 187 185 187 188 187 189 190 190 191 191 194 198 190 188 201 217 229 235 255 279 294 291 271 262 272 272 267 267 269 274 279 284 291 295 296 297 298 308 321 321 312 304 295 285 281 277 277 278 279 279 278 274 271 271 271 271 271 269 266 263 262 260 259 258 258 256 256 256 255 255 255 254 254 255 257
175 175 177 180 181 181 183 185 189 190 189 189 191 191 190 192 194 194 195 196 198 205 211 209 213 225 238 254 274 287 295 292 272 259 268 269 265 267 271 278 282 280 281 287 294 297 297 303 311 312 310 309 301 289 281 276 275 278 279 279 280 279 275 272 270 269 269 267 266 264 263 262 260 259 259 259 258 257 256 255 255 256 256 256 256
176 177 179 180 182 184 187 190 193 192 191 193 194 193 194 196 197 197 199 200 202 214 233 244 231 231 245 271 285 289 291 287 271 260 263 266 269 274 279 283 283 282 286 292 295 297 298 298 301 307 310 309 302 293 285 278 274 275 276 275 275 276 275 273 271 268 266 265 264 264 264 262 260 259 259 259 258 258 257 256 255 255 257 258 257
177 179 181 183 188 190 191 194 194 193 195 196 194 195 197 198 198 199 200 202 208 223 245 263 247 239 255 281 290 290 292 286 275 272 276 279 282 284 285 285 282 282 287 291 293 296 298 298 299 304 308 308 304 297 289 283 278 276 273 272 273 273 273 273 271 269 268 266 264 264 264 263 261 260 259 257 257 258 257 257 256 255 256 257 258
180 184 187 192 196 195 195 197 197 195 198 198 195 196 198 198 199 200 201 202 210 228 252 271 253 248 268 295 304 303 303 301 294 293 294 294 293 291 288 284 280 282 287 289 291 292 293 295 296 298 304 306 301 296 294 290 284 279 275 271 270 271 272 272 272 272 270 269 267 266 265 264 262 261 259 258 256 256 257 256 256 255 254 254 254
186 191 194 199 202 201 201 201 200 200 201 197 195 198 200 199 200 202 202 203 210 227 253 269 262 264 283 306 317 313 310 308 302 300 299 299 297 295 291 286 283 286 289 290 291 292 292 295 294 292 295 297 294 293 290 283 281 283 280 273 267 266 269 271 272 272 271 271 270 268 267 265 264 263 263 262 260 259 259 258 258 258 257 256 256
191 195 200 204 206 208 208 205 203 204 203 199 197 199 200 200 201 203 205 207 212 227 253 265 267 278 293 310 320 318 314 308 302 300 299 299 300 298 294 290 289 289 289 289 289 290 295 300 298 292 291 291 292 289 279 273 280 286 284 280 274 269 269 270 270 272 272 271 271 270 269 268 267 267 266 265 263 261 260 260 260 260 260 260 261
194 197 202 207 208 210 212 210 208 208 207 205 202 202 203 204 205 207 208 211 216 227 249 263 270 284 296 307 318 320 317 311 304 301 301 299 299 298 296 294 293 291 290 288 288 292 299 304 301 292 287 287 287 285 279 277 283 287 285 284 282 276 272 271 272 273 274 273 273 272 271 270 269 269 269 268 266 263 260 259 259 259 259 260 261
195 197 203 208 210 212 215 215 212 211 211 210 208 206 207 209 209 210 212 217 223 229 247 264 272 281 292 303 312 316 314 310 307 305 303 302 301 301 299 297 297 296 294 294 297 300 304 304 297 288 286 285 284 283 279 278 283 287 284 282 281 279 275 273 273 273 274 274 275 273 271 269 268 268 269 269 269 267 264 261 259 259 261 261 260
197 200 207 214 215 217 220 218 215 215 214 214 213 211 209 211 211 211 214 222 228 232 246 264 271 277 289 299 307 312 312 311 311 308 305 305 304 303 301 300 300 300 301 303 305 305 304 299 291 287 286 284 282 279 276 277 285 292 288 281 277 276 275 273 271 271 272 273 274 274 272 269 266 266 268 269 269 270 268 267 264 261 261 261 259
202 208 215 220 221 221 224 222 219 218 216 215 216 214 212 212 212 211 216 225 230 233 247 265 271 277 289 298 305 311 312 313 312 309 307 306 305 304 303 302 303 305 307 308 306 303 299 293 288 286 286 283 282 279 275 278 288 298 295 285 277 274 273 273 272 272 272 272 272 272 272 269 265 264 265 267 269 271 271 270 269 265 262 261 260
208 217 221 224 226 225 226 225 221 218 217 216 215 214 213 213 212 213 218 226 229 232 251 268 274 282 292 300 307 311 313 313 311 310 310 308 307 306 305 305 306 308 310 309 305 301 296 292 288 286 285 283 283 281 278 282 293 300 297 289 283 277 273 272 272 272 270 269 269 270 270 269 266 264 262 263 266 268 269 269 268 266 264 263 262
210 223 226 228 231 227 224 226 223 216 216 216 213 213 213 212 212 215 220 230 235 240 256 269 276 286 296 303 309 312 312 312 312 312 312 310 308 307 307 307 308 310 310 309 304 300 294 290 287 286 285 284 284 282 282 288 297 300 296 291 285 279 274 271 270 269 268 267 268 269 270 268 266 264 262 262 264 265 267 267 267 267 266 265 263
218 229 233 232 231 223 221 227 225 217 217 215 210 210 212 210 210 214 223 237 243 248 260 271 280 290 300 307 311 312 312 312 313 313 311 309 309 308 308 309 309 308 307 306 302 297 293 289 286 286 285 284 284 284 286 290 293 293 291 289 283 279 276 273 270 270 270 270 270 268 268 268 267 265 264 265 267 268 268 268 268 268 268 267 266
217 222 221 213 208 206 212 222 217 212 214 212 207 208 209 206 206 212 225 238 244 252 263 273 284 295 304 309 311 310 311 312 311 310 308 307 307 308 309 310 307 303 302 304 302 297 293 291 288 287 286 285 286 288 291 292 290 287 286 287 284 280 278 276 276 274 273 273 272 269 268 268 266 266 267 269 270 271 270 268 267 268 268 267 268
184 181 175 172 172 175 180 181 184 192 200 204 205 203 199 198 205 217 229 237 245 255 266 278 292 301 306 308 308 309 310 309 306 305 305 306 307 308 310 310 306 302 301 300 297 294 293 292 290 289 288 287 288 289 289 287 284 283 284 285 284 282 279 278 278 277 276 275 274 273 272 271 270 269 269 269 268 268 267 265 265 268 269 267 267
154 153 152 149 144 145 148 152 162 170 174 183 188 186 188 200 212 219 225 234 248 261 274 289 299 303 304 306 307 308 306 303 303 303 305 308 311 311 311 309 305 302 299 297 295 295 294 293 292 290 288 287 286 286 283 279 279 282 284 283 283 283 282 282 281 279 278 277 275 275 275 274 274 273 271 269 267 264 262 261 261 263 265 266 267
141 143 140 135 130 131 137 143 148 149 149 155 163 170 188 206 210 214 224 240 257 273 287 296 300 301 303 305 305 303 301 301 304 307 311 314 314 311 308 305 302 299 297 296 296 297 295 293 292 290 288 286 285 284 283 281 283 287 290 288 286 284 283 283 281 278 278 279 279 278 276 275 274 273 271 271 270 268 265 263 259 258 259 260 262
136 132 129 128 126 128 134 136 138 141 144 148 158 172 185 192 196 208 233 256 274 287 294 297 300 301 302 303 302 303 305 307 310 314 316 316 312 307 305 303 301 299 297 296 297 297 296 295 294 294 292 290 288 287 287 287 288 291 293 294 292 287 283 281 280 280 281 281 280 278 276 275 274 273 272 270 269 268 267 265 262 260 259 259 260
126 122 123 125 125 127 133 137 141 150 154 153 162 177 184 186 198 217 246 275 288 295 297 300 301 301 302 304 307 310 313 314 315 317 316 312 307 305 305 304 302 300 298 298 297 297 296 296 297 297 296 293 291 291 291 290 290 291 292 294 294 291 286 283 282 284 283 279 278 278 276 275 274 273 272 271 272 272 271 270 268 265 262 261 261
117 118 121 123 125 127 132 139 148 158 162 164 177 195 199 205 234 257 273 286 294 299 302 303 302 304 308 311 313 317 319 317 316 316 314 311 309 309 310 309 308 306 303 301 298 297 296 296 297 298 296 294 295 295 293 291 292 293 294 295 295 291 286 282 280 280 281 280 277 274 273 273 272 272 272 272 272 273 274 276 275 271 267 262 260
116 117 119 122 125 128 133 140 149 160 173 182 196 215 222 241 267 282 290 295 296 299 302 303 306 311 314 315 317 321 319 315 312 312 313 313 313 313 313 313 312 311 308 306 304 301 297 295 295 295 294 295 297 297 296 296 297 296 294 293 293 289 285 284 282 282 283 282 278 274 272 271 271 271 271 272 271 270 272 278 280 275 269 263 259
115 115 116 118 120 126 138 149 157 171 190 205 224 239 250 271 290 303 306 302 300 303 308 310 312 315 314 313 316 319 316 314 314 315 316 315 315 314 313 313 315 316 314 310 309 308 305 299 295 294 295 297 297 296 297 297 296 294 290 287 288 287 286 287 288 290 290 286 281 276 273 272 272 272 272 271 269 265 267 275 279 274 268 263 259
117 118 118 118 119 126 140 153 161 163 161 195 247 264 278 297 313 322 301 302 308 314 318 316 312 312 312 314 317 319 320 321 321 318 318 317 315 314 314 314 316 317 316 314 312 311 309 305 300 298 298 297 295 294 296 296 294 291 288 286 285 286 288 291 292 293 292 288 284 280 275 273 276 277 275 272 269 266 266 270 274 271 267 264 260
127 126 124 124 126 130 137 147 156 153 146 162 238 292 306 310 313 295 292 308 315 315 317 317 312 313 317 321 323 323 322 323 321 319 320 319 315 313 313 313 315 316 315 315 311 307 307 306 303 301 299 297 295 295 295 293 289 288 288 288 288 288 290 290 289 289 289 287 286 286 282 280 280 280 277 275 272 267 265 264 265 263 262 262 260
134 134 135 137 139 139 141 148 153 153 156 176 243 298 306 308 309 302 305 319 320 315 320 322 318 319 323 324 325 323 321 322 322 322 321 317 314 312 310 311 312 310 311 313 308 303 303 302 300 298 297 295 295 294 288 285 285 287 289 290 290 290 289 288 288 289 288 286 286 286 285 282 281 278 275 273 269 265 261 261 261 260 259 260 258
139 140 144 148 146 142 145 150 153 155 161 182 241 293 307 307 306 312 322 328 325 322 323 323 322 323 323 324 327 326 323 324 324 322 320 317 314 313 314 316 314 310 313 318 314 306 304 302 299 297 295 291 289 288 288 290 293 295 296 295 294 293 292 291 291 291 289 286 285 285 282 279 277 274 271 269 266 261 258 257 257 258 260 262 259
145 143 147 149 145 140 143 148 150 156 163 174 263 314 326 321 317 327 333 329 326 325 323 322 324 323 322 325 330 327 324 325 325 322 320 317 316 317 319 317 314 311 315 321 323 321 319 313 304 298 296 296 295 293 295 302 306 306 305 303 301 298 295 293 292 291 288 287 286 283 279 276 274 272 270 269 265 259 255 255 255 256 257 258 259
Height
1529 1529 1530 1531 1531 1532 1533 1535 1536 1538 1540 1541 1542 1543 1544 1546 1547 1547 1547 1548 1548 1549 1550 1551 1552 1553 1553 1554 1555 1555 1556 1556 1556 1556 1556 1557 1557 1556 1556 1556 1556 1556 1556 1556 1556 1555 1554 1554 1553 1553 1552 1552 1551 1551 1551 1551 1551 1551 1552 1552 1554 1555 1555 1555 1556 1556 1556 1556 1556 1556 1555 1554 1554 1554 1555 1555 1555 1555 1556 1556 1557 1557 1557 1558 1558
1528 1529 1529 1530 1531 1531 1533 1534 1536 1538 1539 1540 1541 1542 1544 1545 1546 1547 1547 1548 1548 1549 1550 1551 1551 1551 1552 1553 1554 1554 1554 1554 1555 1555 1555 1555 1555 1555 1554 1554 1555 1554 1554 1554 1554 1553 1553 1552 1552 1551 1550 1550 1549 1549 1549 1548 1548 1549 1550 1550 1551 1552 1553 1554 1554 1554 1555 1555 1555 1555 1554 1553 1552 1552 1552 1552 1552 1553 1553 1554 1554 1555 1555 1556 1556
1528 1530 1530 1530 1531 1531 1533 1534 1535 1537 1538 1539 1540 1542 1543 1544 1545 1546 1546 1547 1548 1549 1549 1550 1550 1550 1551 1552 1553 1553 1553 1553 1553 1553 1553 1553 1553 1553 1552 1552 1552 1552 1552 1552 1552 1552 1551 1551 1550 1550 1549 1548 1548 1547 1547 1547 1547 1547 1548 1549 1550 1551 1551 1552 1553 1552 1553 1554 1554 1553 1552 1551 1550 1550 1550 1550 1550 1550 1550 1551 1551 1552 1553 1554 1554
1528 1529 1530 1530 1531 1532 1533 1534 1535 1537 1538 1539 1540 1541 1542 1543 1544 1545 1546 1547 1547 1548 1549 1549 1549 1550 1550 1551 1551 1551 1552 1552 1552 1552 1551 1551 1551 1551 1551 1551 1551 1551 1551 1551 1551 1551 1550 1549 1549 1549 1548 1547 1546 1546 1545 1545 1546 1546 1546 1546 1547 1549 1549 1550 1551 1551 1552 1553 1552 1551 1551 1550 1548 1547 1548 1548 1548 1548 1548 1548 1549 1549 1550 1551 1552
1528 1529 1530 1531 1532 1532 1533 1534 1535 1536 1537 1538 1539 1540 1541 1542 1543 1544 1545 1546 1547 1547 1548 1548 1548 1549 1549 1549 1549 1549 1550 1550 1550 1550 1550 1550 1550 1550 1550 1550 1550 1551 1551 1551 1550 1550 1549 1548 1548 1548 1547 1547 1546 1545 1544 1544 1545 1545 1545 1545 1545 1547 1548 1549 1550 1550 1550 1551 1551 1550 1550 1548 1547 1546 1547 1547 1548 1548 1547 1546 1546 1547 1547 1548 1549
1528 1528 1530 1531 1531 1532 1533 1534 1535 1536 1537 1538 1539 1540 1540 1541 1542 1543 1544 1545 1546 1546 1546 1547 1547 1548 1548 1548 1548 1548 1549 1549 1549 1549 1549 1549 1549 1549 1549 1549 1549 1550 1549 1549 1549 1549 1548 1547 1547 1547 1546 1546 1545 1545 1544 1544 1544 1545 1545 1544 1544 1546 1546 1548 1549 1549 1549 1549 1549 1549 1548 1547 1546 1546 1546 1545 1546 1547 1547 1546 1545 1544 1545 1545 1546
1527 1528 1529 1531 1531 1532 1533 1533 1535 1536 1537 1537 1538 1539 1540 1541 1542 1543 1543 1544 1544 1545 1545 1546 1546 1546 1547 1547 1547 1548 1548 1549 1549 1549 1549 1549 1549 1549 1548 1549 1549 1549 1549 1548 1548 1547 1547 1547 1546 1546 1545 1545 1545 1544 1544 1544 1545 1545 1545 1544 1544 1545 1545 1546 1547 1547 1547 1547 1547 1547 1547 1546 1545 1545 1545 1544 1543 1543 1544 1544 1544 1544 1543 1543 1543
1527 1528 1529 1530 1531 1532 1533 1534 1535 1536 1536 1537 1538 1539 1540 1541 1541 1542 1543 1543 1544 1544 1545 1545 1545 1545 1546 1546 1547 1547 1548 1549 1549 1549 1549 1549 1548 1548 1548 1548 1548 1548 1548 1548 1547 1547 1546 1546 1546 1545 1545 1545 1544 1544 1544 1544 1545 1545 1543 1543 1543 1543 1543 1544 1545 1545 1545 1546 1546 1545 1545 1544 1544 1544 1543 1543 1542 1541 1540 1541 1541 1542 1542 1541 1541
1526 1527 1529 1530 1531 1532 1533 1534 1535 1535 1536 1537 1538 1539 1540 1541 1541 1542 1542 1543 1543 1544 1544 1545 1545 1545 1546 1546 1547 1548 1548 1549 1549 1549 1549 1548 1548 1548 1548 1548 1548 1548 1548 1547 1547 1546 1546 1546 1546 1545 1545 1545 1544 1544 1543 1543 1544 1543 1542 1542 1542 1542 1542 1542 1542 1543 1544 1545 1544 1543 1542 1542 1542 1542 1541 1541 1541 1540 1539 1538 1538 1539 1540 1540 1540
1526 1527 1528 1529 1530 1532 1533 1534 1534 1535 1536 1537 1538 1539 1540 1541 1541 1542 1542 1543 1543 1544 1544 1545 1545 1545 1546 1547 1547 1548 1548 1549 1549 1549 1549 1548 1548 1548 1548 1548 1548 1548 1547 1547 1546 1546 1546 1546 1545 1545 1545 1544 1544 1543 1543 1543 1542 1542 1541 1541 1541 1541 1541 1541 1541 1542 1543 1543 1542 1541 1540 1540 1540 1539 1539 1539 1539 1539 1538 1538 1537 1537 1537 1537 1537
1525 1526 1527 1529 1530 1531 1532 1533 1534 1535 1536 1537 1538 1539 1540 1540 1541 1542 1542 1543 1543 1544 1544 1544 1545 1545 1546 1547 1547 1548 1548 1548 1549 1548 1548 1548 1548 1548 1548 1548 1547 1548 1547 1546 1546 1546 1545 1545 1545 1545 1544 1544 1544 1543 1543 1542 1541 1541 1540 1540 1540 1540 1540 1540 1540 1540 1540 1540 1540 1540 1539 1539 1539 1538 1538 1538 1537 1537 1536 1535 1535 1535 1535 1534 1534
1524 1525 1526 1528 1529 1530 1532 1533 1533 1535 1536 1537 1538 1539 1540 1540 1541 1542 1542 1543 1543 1544 1544 1544 1545 1545 1546 1547 1547 1548 1548 1548 1548 1548 1548 1548 1548 1548 1548 1547 1547 1546 1547 1546 1545 1545 1545 1544 1544 1544 1544 1543 1543 1542 1542 1541 1541 1540 1540 1539 1539 1538 1538 1538 1538 1538 1538 1538 1538 1538 1537 1536 1537 1537 1536 1536 1535 1535 1533 1532 1532 1533 1532 1532 1533
1522 1524 1526 1527 1528 1530 1531 1533 1533 1535 1536 1536 1537 1538 1539 1540 1541 1541 1542 1542 1543 1543 1544 1544 1545 1546 1546 1547 1547 1547 1548 1548 1548 1548 1548 1548 1548 1547 1547 1547 1546 1545 1546 1546 1545 1544 1544 1543 1543 1543 1542 1542 1542 1541 1541 1540 1540 1539 1539 1538 1538 1537 1537 1536 1536 1536 1536 1536 1535 1534 1534 1533 1533 1534 1534 1533 1533 1533 1532 1531 1531 1532 1531 1530 1530
1521 1523 1525 1526 1528 1530 1531 1532 1533 1535 1536 1536 1537 1538 1539 1540 1540 1541 1542 1542 1543 1544 1544 1545 1545 1546 1546 1547 1547 1547 1547 1547 1547 1548 1547 1547 1547 1547 1546 1546 1546 1545 1545 1545 1543 1543 1543 1543 1542 1541 1541 1541 1540 1540 1539 1539 1538 1538 1537 1537 1536 1536 1535 1535 1534 1534 1533 1533 1532 1532 1532 1531 1531 1531 1531 1531 1531 1530 1530 1530 1530 1529 1528 1528 1528
1520 1522 1524 1526 1527 1530 1531 1532 1534 1534 1535 1536 1537 1538 1539 1540 1540 1541 1542 1543 1543 1544 1545 1545 1546 1546 1546 1547 1547 1547 1547 1547 1547 1547 1547 1546 1546 1546 1545 1545 1545 1545 1544 1543 1542 1541 1541 1541 1540 1540 1540 1539 1538 1538 1538 1537 1537 1536 1536 1535 1535 1534 1534 1533 1533 1533 1532 1531 1530 1530 1530 1530 1529 1529 1529 1529 1529 1529 1528 1528 1528 1527 1526 1526 1526
1519 1521 1524 1526 1527 1529 1531 1532 1533 1534 1535 1536 1537 1538 1539 1540 1541 1541 1542 1543 1544 1544 1545 1546 1546 1546 1547 1547 1547 1547 1547 1547 1546 1546 1546 1545 1545 1545 1544 1544 1544 1544 1543 1542 1541 1541 1540 1539 1539 1539 1538 1537 1536 1536 1536 1535 1535 1534 1534 1533 1533 1532 1532 1532 1531 1531 1530 1530 1529 1528 1528 1527 1527 1527 1527 1527 1527 1526 1525 1526 1526 1525 1525 1524 1524
1518 1521 1523 1526 1527 1529 1530 1532 1533 1534 1535 1536 1537 1539 1540 1541 1541 1542 1543 1544 1544 1545 1545 1546 1546 1547 1547 1547 1547 1546 1546 1546 1546 1546 1545 1545 1544 1544 1544 1544 1543 1543 1542 1542 1541 1540 1539 1538 1537 1537 1536 1536 1535 1534 1534 1533 1532 1532 1532 1531 1531 1531 1530 1529 1529 1529 1528 1528 1527 1527 1526 1525 1525 1525 1525 1525 1525 1524 1524 1523 1523 1523 1523 1522 1522
1518 1520 1523 1525 1527 1529 1530 1532 1533 1534 1535 1537 1538 1539 1540 1541 1542 1543 1543 1544 1545 1545 1546 1546 1546 1547 1547 1546 1546 1546 1546 1546 1545 1545 1545 1544 1544 1544 1544 1543 1543 1542 1541 1540 1540 1539 1538 1537 1536 1535 1534 1533 1533 1532 1532 1531 1530 1529 1529 1529 1528 1528 1528 1527 1527 1527 1526 1526 1526 1525 1524 1524 1523 1523 1523 1522 1522 1522 1521 1521 1521 1521 1521 1520 1520
1518 1520 1523 1525 1526 1529 1530 1532 1533 1534 1536 1537 1538 1539 1540 1542 1542 1543 1544 1544 1545 1545 1546 1546 1546 1546 1547 1546 1546 1546 1546 1545 1545 1545 1544 1544 1544 1544 1543 1542 1542 1542 1541 1539 1538 1538 1537 1536 1534 1534 1533 1532 1531 1531 1530 1529 1528 1527 1527 1527 1526 1526 1525 1525 1525 1524 1524 1524 1523 1523 1522 1522 1522 1521 1521 1520 1520 1520 1519 1519 1519 1519 1518 1518 1518
1516 1519 1522 1524 1526 1528 1529 1532 1533 1534 1535 1537 1538 1540 1540 1542 1542 1542 1543 1544 1544 1544 1545 1545 1546 1546 1546 1546 1546 1545 1545 1545 1544 1544 1544 1544 1543 1543 1543 1542 1541 1541 1540 1538 1537 1536 1535 1534 1533 1532 1531 1531 1530 1529 1528 1527 1526 1525 1525 1525 1524 1524 1523 1522 1522 1522 1522 1521 1521 1521 1520 1520 1520 1519 1519 1519 1518 1518 1517 1517 1517 1516 1516 1515 1515
1516 1519 1522 1524 1526 1528 1529 1532 1533 1534 1535 1537 1538 1539 1540 1541 1541 1542 1543 1543 1544 1544 1544 1545 1545 1545 1545 1545 1545 1545 1544 1544 1544 1544 1544 1544 1543 1542 1542 1541 1540 1540 1538 1537 1536 1535 1534 1532 1531 1531 1530 1529 1528 1527 1526 1525 1524 1524 1523 1522 1522 1521 1521 1520 1520 1520 1519 1519 1519 1518 1518 1518 1518 1517 1517 1517 1517 1517 1516 1515 1514 1514 1513 1513 1512
1515 1518 1521 1523 1525 1527 1529 1531 1532 1533 1534 1536 1538 1539 1540 1541 1541 1542 1542 1543 1544 1544 1544 1544 1544 1544 1544 1544 1545 1544 1544 1543 1543 1543 1543 1543 1543 1542 1541 1540 1539 1539 1537 1536 1536 1535 1533 1532 1530 1529 1528 1527 1525 1524 1524 1523 1523 1522 1521 1520 1520 1519 1519 1518 1518 1517 1517 1517 1517 1516 1516 1516 1516 1515 1515 1515 1515 1515 1514 1513 1512 1512 1511 1510 1510
1515 1518 1521 1523 1525 1527 1529 1530 1531 1533 1533 1535 1537 1538 1540 1540 1541 1542 1542 1543 1543 1543 1543 1543 1543 1543 1543 1543 1544 1543 1543 1542 1542 1543 1543 1542 1542 1541 1540 1539 1538 1538 1537 1536 1535 1534 1532 1530 1528 1527 1526 1525 1524 1523 1522 1521 1521 1520 1519 1518 1518 1517 1516 1516 1515 1515 1514 1514 1514 1513 1513 1513 1514 1513 1512 1512 1512 1512 1512 1512 1511 1510 1509 1508 1508
1514 1517 1520 1522 1524 1526 1528 1529 1530 1531 1532 1534 1536 1537 1539 1539 1540 1541 1541 1542 1542 1542 1543 1542 1542 1543 1543 1543 1543 1542 1542 1541 1541 1542 1541 1541 1540 1539 1538 1537 1536 1536 1536 1535 1534 1532 1530 1528 1526 1525 1524 1523 1522 1521 1520 1519 1518 1518 1517 1516 1515 1515 1514 1514 1513 1513 1512 1512 1511 1510 1510 1510 1511 1510 1509 1509 1509 1509 1510 1509 1509 1508 1507 1506 1505
1513 1516 1518 1521 1523 1524 1526 1527 1528 1530 1531 1532 1534 1535 1537 1538 1539 1540 1540 1541 1541 1542 1542 1542 1542 1542 1542 1542 1541 1541 1541 1540 1540 1540 1540 1539 1539 1538 1537 1535 1534 1534 1533 1533 1532 1530 1529 1527 1525 1524 1523 1521 1520 1519 1518 1517 1516 1515 1515 1514 1513 1512 1512 1511 1511 1510 1510 1509 1508 1508 1508 1508 1508 1507 1507 1507 1507 1507 1507 1506 1506 1506 1505 1504 1503
1511 1514 1517 1519 1520 1522 1524 1525 1527 1529 1530 1531 1533 1534 1535 1537 1538 1539 1539 1540 1540 1541 1541 1541 1541 1541 1540 1540 1540 1540 1539 1539 1538 1538 1538 1537 1536 1535 1534 1533 1533 1532 1531 1530 1530 1529 1527 1526 1524 1522 1521 1519 1518 1517 1516 1515 1514 1513 1512 1512 1511 1510 1509 1508 1508 1507 1507 1506 1506 1505 1505 1505 1505 1504 1504 1504 1504 1504 1503 1503 1503 1503 1503 1502 1501
1510 1513 1515 1517 1518 1520 1522 1524 1526 1528 1529 1530 1532 1533 1534 1535 1536 1537 1538 1538 1539 1540 1540 1540 1540 1539 1539 1539 1539 1539 1538 1538 1537 1537 1536 1535 1534 1533 1532 1532 1531 1530 1529 1528 1528 1527 1525 1524 1522 1520 1519 1517 1516 1514 1513 1512 1511 1510 1510 1509 1508 1507 1507 1506 1505 1504 1504 1503 1503 1503 1502 1502 1502 1501 1501 1501 1501 1501 1500 1500 1500 1500 1500 1499 1498
1509 1512 1514 1515 1517 1519 1521 1523 1525 1527 1528 1529 1531 1532 1533 1534 1535 1536 1536 1537 1538 1538 1538 1539 1538 1538 1538 1537 1537 1537 1537 1536 1536 1535 1534 1533 1532 1532 1531 1530 1529 1528 1527 1526 1525 1525 1523 1522 1520 1519 1517 1515 1514 1512 1511 1511 1510 1508 1508 1506 1506 1505 1504 1503 1503 1502 1501 1501 1500 1500 1499 1499 1499 1498 1498 1498 1497 1497 1497 1496 1496 1496 1496 1495 1495
1508 1511 1512 1514 1516 1518 1519 1521 1523 1525 1527 1528 1529 1531 1532 1533 1534 1534 1535 1536 1536 1537 1537 1537 1537 1537 1537 1536 1536 1536 1535 1534 1534 1533 1532 1531 1530 1530 1529 1528 1527 1526 1525 1524 1523 1522 1520 1519 1518 1517 1515 1514 1512 1511 1510 1509 1507 1506 1505 1504 1503 1502 1501 1501 1500 1499 1499 1498 1497 1497 1496 1496 1496 1495 1495 1494 1494 1494 1493 1493 1493 1493 1492 1492 1491
1507 1509 1511 1512 1514 1515 1517 1519 1521 1523 1525 1526 1528 1529 1530 1531 1532 1533 1534 1534 1535 1535 1535 1536 1536 1535 1535 1535 1534 1534 1533 1533 1532 1531 1530 1529 1528 1528 1527 1526 1525 1524 1523 1522 1521 1520 1518 1517 1515 1514 1513 1512 1510 1509 1508 1506 1505 1503 1502 1501 1500 1499 1499 1498 1497 1496 1496 1495 1494 1494 1493 1493 1492 1492 1491 1491 1491 1490 1490 1490 1489 1489 1489 1489 1488
1505 1507 1509 1510 1512 1514 1515 1517 1519 1521 1523 1524 1526 1527 1529 1530 1531 1532 1533 1533 1533 1534 1534 1535 1535 1534 1534 1533 1533 1532 1532 1531 1530 1529 1528 1528 1527 1526 1525 1524 1523 1522 1521 1520 1519 1517 1516 1514 1513 1512 1511 1509 1508 1507 1505 1503 1502 1501 1500 1499 1497 1497 1496 1495 1495 1494 1493 1492 1492 1491 1490 1489 1489 1488 1488 1487 1487 1486 1486 1486 1485 1485 1485 1485 1485
1503 1505 1506 1508 1510 1511 1512 1514 1516 1518 1520 1522 1524 1525 1527 1528 1529 1530 1531 1532 1532 1532 1533 1533 1533 1533 1532 1532 1531 1531 1530 1529 1528 1528 1527 1526 1525 1524 1523 1522 1521 1520 1519 1517 1516 1515 1513 1511 1510 1509 1508 1507 1506 1504 1502 1500 1499 1498 1497 1496 1495 1494 1493 1493 1492 1491 1490 1489 1488 1488 1487 1486 1486 1485 1484 1484 1483 1483 1482 1482 1481 1481 1481 1481 1481
1500 1502 1503 1505 1507 1508 1510 1512 1514 1516 1518 1520 1522 1524 1525 1527 1528 1529 1530 1531 1531 1531 1532 1532 1532 1531 1531 1530 1530 1529 1528 1527 1526 1526 1525 1524 1523 1522 1521 1520 1519 1517 1516 1514 1513 1512 1510 1509 1508 1507 1505 1504 1503 1502 1499 1497 1496 1496 1495 1493 1492 1491 1490 1489 1489 1488 1487 1486 1485 1484 1483 1483 1482 1482 1481 1480 1480 1479 1478 1478 1477 1477 1477 1477 1476
1499 1501 1502 1504 1505 1507 1509 1510 1513 1514 1516 1519 1520 1522 1524 1526 1527 1528 1528 1529 1530 1530 1530 1530 1530 1529 1529 1528 1528 1527 1526 1525 1524 1524 1523 1522 1521 1520 1518 1517 1516 1515 1513 1511 1510 1509 1507 1506 1505 1504 1502 1501 1499 1498 1496 1494 1493 1493 1492 1490 1489 1488 1487 1486 1485 1485 1484 1483 1482 1481 1480 1479 1479 1478 1478 1477 1476 1476 1475 1474 1474 1473 1473 1473 1472
1498 1499 1501 1503 1504 1505 1507 1508 1511 1513 1515 1517 1519 1520 1523 1524 1525 1526 1527 1527 1528 1528 1529 1528 1528 1528 1527 1527 1526 1525 1524 1523 1522 1521 1520 1519 1518 1517 1516 1515 1513 1512 1510 1508 1507 1506 1504 1503 1502 1500 1499 1497 1496 1495 1493 1491 1490 1489 1488 1487 1486 1485 1484 1483 1482 1481 1480 1480 1479 1478 1477 1476 1475 1475 1475 1474 1473 1472 1471 1471 1470 1469 1469 1469 1468
1497 1499 1500 1501 1502 1504 1505 1507 1509 1511 1513 1515 1517 1519 1521 1522 1523 1525 1526 1526 1526 1527 1527 1526 1526 1526 1525 1525 1524 1523 1522 1521 1520 1519 1518 1517 1516 1515 1513 1512 1510 1509 1507 1506 1504 1503 1501 1500 1499 1497 1496 1494 1493 1491 1490 1488 1486 1485 1485 1483 1482 1481 1481 1480 1479 1478 1477 1476 1476 1475 1474 1473 1472 1471 1471 1471 1470 1469 1468 1467 1467 1466 1466 1465 1465
1496 1498 1499 1500 1502 1503 1504 1505 1507 1509 1511 1513 1515 1518 1519 1520 1522 1523 1524 1525 1525 1525 1525 1525 1525 1524 1523 1523 1522 1521 1520 1519 1518 1517 1516 1515 1514 1512 1511 1509 1508 1506 1505 1503 1501 1499 1498 1497 1495 1494 1493 1491 1489 1488 1486 1484 1483 1482 1481 1479 1479 1478 1477 1476 1475 1474 1473 1472 1472 1471 1470 1469 1469 1468 1468 1467 1467 1466 1465 1465 1464 1463 1462 1462 1461
1495 1497 1497 1498 1500 1501 1502 1504 1505 1507 1509 1511 1514 1516 1517 1519 1521 1522 1523 1524 1524 1524 1523 1523 1523 1522 1522 1521 1520 1519 1518 1517 1516 1515 1514 1513 1511 1510 1509 1507 1505 1504 1502 1500 1498 1496 1495 1493 1492 1490 1489 1487 1485 1484 1482 1480 1479 1478 1477 1476 1475 1475 1473 1472 1471 1470 1470 1469 1468 1467 1466 1466 1465 1464 1464 1464 1463 1463 1462 1462 1461 1460 1459 1458 1458
1494 1495 1496 1497 1499 1500 1501 1503 1504 1506 1508 1510 1512 1515 1517 1518 1520 1521 1522 1522 1522 1522 1521 1521 1521 1520 1520 1519 1518 1517 1516 1515 1514 1513 1512 1511 1509 1508 1506 1504 1502 1501 1499 1497 1495 1494 1492 1490 1488 1486 1485 1483 1481 1480 1479 1477 1475 1474 1474 1472 1472 1471 1470 1469 1468 1467 1466 1465 1464 1463 1462 1461 1461 1460 1460 1460 1459 1459 1458 1458 1457 1456 1455 1454 1455
1493 1495 1496 1497 1498 1499 1501 1502 1504 1506 1507 1510 1512 1514 1516 1517 1518 1520 1520 1520 1520 1520 1520 1520 1519 1519 1518 1517 1516 1516 1514 1513 1512 1511 1510 1508 1507 1505 1503 1501 1500 1498 1496 1494 1492 1491 1489 1487 1485 1483 1482 1480 1478 1477 1476 1474 1472 1472 1471 1470 1469 1468 1467 1466 1465 1464 1462 1461 1460 1460 1458 1458 1457 1456 1456 1456 1455 1455 1454 1453 1453 1452 1451 1451 1451
1494 1495 1496 1497 1498 1500 1501 1503 1504 1506 1508 1511 1512 1514 1515 1516 1517 1519 1519 1519 1519 1519 1518 1518 1518 1517 1517 1516 1515 1514 1513 1511 1510 1509 1507 1506 1504 1502 1501 1499 1497 1496 1494 1492 1489 1488 1486 1484 1482 1480 1478 1477 1475 1474 1473 1471 1470 1469 1468 1467 1466 1465 1464 1463 1461 1460 1459 1458 1457 1456 1455 1454 1453 1452 1452 1451 1451 1451 1450 1449 1448 1448 1447 1447 1447
1494 1495 1496 1498 1499 1501 1502 1504 1505 1507 1509 1511 1512 1513 1514 1515 1517 1518 1518 1517 1517 1517 1517 1517 1516 1516 1515 1514 1513 1512 1511 1509 1508 1506 1505 1503 1501 1500 1498 1497 1495 1493 1491 1489 1487 1485 1483 1481 1479 1478 1476 1474 1473 1471 1470 1468 1467 1466 1465 1464 1463 1462 1461 1460 1458 1457 1456 1455 1453 1452 1451 1450 1449 1448 1447 1447 1446 1446 1445 1444 1444 1443 1443 1443 1443
1494 1496 1498 1499 1500 1502 1503 1505 1506 1508 1509 1511 1512 1513 1514 1515 1516 1516 1516 1516 1516 1516 1516 1515 1514 1514 1513 1512 1511 1510 1509 1507 1506 1504 1503 1501 1499 1498 1496 1494 1493 1491 1489 1487 1485 1483 1481 1479 1477 1475 1473 1472 1470 1469 1467 1466 1465 1463 1462 1461 1460 1459 1457 1456 1455 1453 1452 1451 1450 1448 1447 1446 1444 1443 1442 1442 1441 1441 1440 1439 1439 1439 1439 1438 1438
1496 1498 1499 1500 1502 1503 1504 1506 1507 1508 1509 1511 1512 1513 1513 1514 1514 1514 1515 1515 1515 1514 1514 1513 1513 1512 1511 1510 1509 1508 1507 1505 1503 1502 1501 1499 1498 1496 1494 1493 1491 1489 1486 1484 1483 1481 1479 1477 1475 1473 1471 1469 1468 1466 1465 1464 1462 1461 1459 1458 1457 1455 1454 1453 1452 1450 1448 1447 1445 1444 1442 1440 1439 1438 1437 1437 1436 1435 1435 1434 1434 1434 1433 1433 1433
1498 1499 1500 1501 1503 1503 1505 1506 1507 1508 1510 1511 1512 1513 1513 1513 1513 1513 1514 1514 1514 1513 1513 1512 1512 1511 1510 1509 1507 1506 1505 1504 1502 1501 1499 1498 1496 1494 1492 1491 1489 1487 1485 1483 1481 1479 1477 1475 1473 1471 1469 1467 1465 1464 1463 1461 1460 1458 1457 1455 1453 1452 1450 1449 1447 1446 1444 1442 1440 1438 1436 1434 1433 1432 1431 1431 1430 1430 1430 1429 1429 1428 1428 1427 1427
1499 1500 1502 1503 1504 1505 1506 1507 1508 1509 1510 1511 1512 1512 1512 1512 1512 1512 1513 1512 1512 1512 1511 1511 1510 1510 1509 1508 1506 1505 1504 1502 1501 1500 1498 1496 1495 1493 1491 1489 1487 1485 1483 1481 1479 1477 1475 1473 1470 1468 1466 1465 1463 1461 1460 1459 1457 1456 1454 1452 1450 1448 1447 1445 1443 1441 1439 1437 1435 1433 1431 1429 1428 1427 1426 1425 1424 1424 1425 1424 1423 1423 1422 1421 1421
1501 1502 1503 1504 1505 1506 1507 1508 1509 1510 1510 1511 1511 1511 1511 1512 1512 1512 1512 1511 1511 1511 1511 1510 1510 1509 1508 1507 1505 1504 1502 1501 1500 1498 1497 1495 1493 1491 1490 1488 1486 1484 1482 1479 1477 1475 1473 1471 1469 1466 1464 1463 1461 1459 1458 1456 1454 1452 1451 1449 1447 1446 1444 1442 1439 1438 1435 1433 1430 1428 1426 1424 1422 1421 1420 1419 1419 1419 1419 1419 1418 1418 1417 1416 1416
1502 1503 1504 1505 1506 1507 1507 1508 1509 1510 1510 1511 1510 1510 1511 1511 1511 1511 1511 1511 1510 1510 1510 1509 1509 1508 1507 1505 1504 1502 1501 1500 1499 1497 1495 1494 1492 1490 1488 1486 1484 1483 1480 1478 1476 1473 1471 1469 1467 1464 1463 1461 1459 1458 1456 1453 1451 1449 1447 1445 1444 1442 1440 1438 1435 1433 1431 1429 1426 1423 1421 1419 1417 1416 1415 1414 1414 1414 1414 1414 1413 1413 1413 1412 1411
1502 1503 1504 1505 1506 1507 1507 1508 1509 1509 1510 1510 1510 1510 1510 1510 1510 1510 1510 1509 1509 1509 1508 1508 1508 1507 1506 1504 1503 1501 1500 1499 1497 1495 1494 1492 1490 1488 1486 1484 1483 1481 1479 1476 1474 1471 1469 1468 1465 1463 1461 1458 1457 1455 1453 1450 1448 1446 1444 1442 1439 1437 1436 1433 1431 1429 1426 1424 1421 1419 1416 1414 1412 1411 1410 1410 1410 1409 1409 1409 1409 1408 1408 1408 1407
1503 1504 1504 1505 1506 1507 1507 1508 1508 1509 1509 1509 1509 1510 1510 1509 1509 1509 1508 1508 1508 1507 1507 1508 1507 1506 1505 1503 1501 1500 1499 1497 1496 1494 1492 1490 1488 1486 1484 1482 1480 1478 1475 1473 1471 1469 1467 1465 1462 1460 1458 1456 1454 1451 1448 1446 1444 1441 1439 1437 1434 1432 1430 1427 1426 1424 1421 1418 1416 1413 1411 1409 1408 1407 1406 1405 1405 1405 1404 1404 1404 1404 1404 1403 1403
1503 1504 1504 1505 1506 1507 1507 1508 1508 1509 1509 1509 1509 1509 1509 1509 1509 1508 1508 1508 1507 1506 1506 1506 1506 1505 1503 1501 1500 1499 1497 1496 1494 1493 1491 1488 1485 1483 1482 1480 1477 1474 1472 1470 1468 1466 1464 1461 1459 1456 1454 1452 1449 1447 1445 1442 1439 1437 1434 1432 1429 1427 1424 1422 1420 1418 1415 1413 1411 1409 1407 1405 1404 1403 1402 1401 1401 1400 1400 1400 1400 1400 1399 1399 1398